History for TLPC

Vigie, St. Lucia

Daily Weekly Monthly
Daily Summary for Sunday, December 21, 2014
  Actual: Average: Record:
Temperature
Mean Temperature: 82 °F / 28 °C - :  
Max Temperature: 86 °F / 30 °C 81 °F / 27 °C 86 °F / 30 °C (2001)
Min Temperature: 78 °F / 25 °C 76 °F / 24 °C 73 °F / 22 °C (2002)
Cooling Degree Days 17    
Growing Degree Days 32 (Base 50)    
Moisture
Dew Point 74 °F / 24 °C    
Average Humidity 76    
Maximum Humidity 84    
Minimum Humidity 66    
Precipitation
Precipitation 0.00 in / 0.0 cm - - ()
Sea Level Pressure
Sea Level Pressure 29.99 in / 1015.45 hPa   
Wind
Wind Speed 10 mph / 16 km/h ()  
Max Wind Speed 17 mph / 28 km/h   
Max Gust Speed -   
Visibility 8.8 miles / 14.3 kilometers   
Events     
Averages and records for this station are not official NWS values.
Key: T is trace of precipitation, MM is missing value
Source: Averaged Metar Reports
Seasonal Weather Averages

Graphs

Observations

History Graphs Observations

Obs Go Here...

Features

Weather Apps

WunderRadio

Weather Underground Apps
Check out our wide variety of mobile and setup applications.

Weather Underground Applications

Top of Page

Copyright© 2014
Weather Underground, Inc.
Time(AST)TemperatureDew PointHumidity Sea Level Pressure Visibility Wind DirectionWind SpeedGust SpeedPrecipitationEvents Conditions
6:00 AM 78.8 °F / 26.0 °C 71.6 °F / 22.0 °C 78% 29.98 in / 1015 hPa 6.2 miles / 10.0 kilometers ESE 8.1 mph / 13.0 km/h - N/A   Partly Cloudy
7:00 AM 78.8 °F / 26.0 °C 71.6 °F / 22.0 °C 78% 29.98 in / 1015 hPa 6.2 miles / 10.0 kilometers ESE 11.5 mph / 18.5 km/h - N/A   Partly Cloudy
8:00 AM 80 °F / 27 °C 73 °F / 23 °C 74% 30.03 in / 1017 hPa 17 miles / 28 kilometers East 9.2 mph / 14.8 km/h - -   Haze
8:00 AM 80.6 °F / 27.0 °C 73.4 °F / 23.0 °C 79% 30.01 in / 1016 hPa 6.2 miles / 10.0 kilometers East 9.2 mph / 14.8 km/h - N/A   Scattered Clouds
9:00 AM 82.4 °F / 28.0 °C 75.2 °F / 24.0 °C 79% 30.04 in / 1017 hPa 6.2 miles / 10.0 kilometers East 8.1 mph / 13.0 km/h - N/A   Scattered Clouds
10:00 AM 82.4 °F / 28.0 °C 75.2 °F / 24.0 °C 79% 30.04 in / 1017 hPa 6.2 miles / 10.0 kilometers East 12.7 mph / 20.4 km/h - N/A   Mostly Cloudy
11:00 AM 85 °F / 29 °C 75 °F / 24 °C 66%  in /  hPa 17 miles / 28 kilometers ESE 17.3 mph / 27.8 km/h - -  
11:00 AM 84.2 °F / 29.0 °C 75.2 °F / 24.0 °C 74% 30.04 in / 1017 hPa 6.2 miles / 10.0 kilometers ESE 17.3 mph / 27.8 km/h - N/A   Scattered Clouds
12:00 PM 84.2 °F / 29.0 °C 77.0 °F / 25.0 °C 79% 30.01 in / 1016 hPa 6.2 miles / 10.0 kilometers East 13.8 mph / 22.2 km/h - N/A   Scattered Clouds
1:00 PM 84.2 °F / 29.0 °C 75.2 °F / 24.0 °C 74% 29.98 in / 1015 hPa 6.2 miles / 10.0 kilometers ESE 15.0 mph / 24.1 km/h - N/A   Scattered Clouds
2:00 PM 84 °F / 29 °C 75 °F / 24 °C 68% 29.97 in / 1015 hPa 17 miles / 28 kilometers East 16.1 mph / 25.9 km/h - -   Haze
2:00 PM 84.2 °F / 29.0 °C 75.2 °F / 24.0 °C 74% 29.95 in / 1014 hPa 6.2 miles / 10.0 kilometers East 16.1 mph / 25.9 km/h - N/A   Mostly Cloudy
3:00 PM 84.2 °F / 29.0 °C 75.2 °F / 24.0 °C 74% 29.95 in / 1014 hPa 6.2 miles / 10.0 kilometers ESE 12.7 mph / 20.4 km/h - N/A   Scattered Clouds
4:00 PM 84.2 °F / 29.0 °C 75.2 °F / 24.0 °C 74% 29.95 in / 1014 hPa 6.2 miles / 10.0 kilometers East 13.8 mph / 22.2 km/h - N/A   Scattered Clouds
5:00 PM 82 °F / 28 °C 75 °F / 24 °C 73% 29.97 in / 1015 hPa 17 miles / 28 kilometers ESE 10.4 mph / 16.7 km/h - -   Haze
5:00 PM 82.4 °F / 28.0 °C 75.2 °F / 24.0 °C 79% 29.95 in / 1014 hPa 6.2 miles / 10.0 kilometers ESE 10.4 mph / 16.7 km/h - N/A   Scattered Clouds
6:00 PM 80.6 °F / 27.0 °C 75.2 °F / 24.0 °C 84% 29.98 in / 1015 hPa 6.2 miles / 10.0 kilometers East 6.9 mph / 11.1 km/h - N/A   Scattered Clouds
7:00 PM 80.6 °F / 27.0 °C 73.4 °F / 23.0 °C 79% 29.98 in / 1015 hPa 6.2 miles / 10.0 kilometers East 9.2 mph / 14.8 km/h - N/A   Scattered Clouds
8:00 PM 80 °F / 27 °C 75 °F / 24 °C 81% 30.01 in / 1016 hPa 17 miles / 28 kilometers East 9.2 mph / 14.8 km/h - -   Haze
8:00 PM 80.6 °F / 27.0 °C 73.4 °F / 23.0 °C 79% 30.01 in / 1016 hPa 6.2 miles / 10.0 kilometers East 9.2 mph / 14.8 km/h - N/A   Scattered Clouds
9:00 PM 80.6 °F / 27.0 °C 73.4 °F / 23.0 °C 79% 30.01 in / 1016 hPa 6.2 miles / 10.0 kilometers East 10.4 mph / 16.7 km/h - N/A   Scattered Clouds